Location: Albany
(35.0000°S, 118.0000°E)
Time: 16:53:09
(UTC-05:00)

ISS - All Passes

Search period start: 23 November 2017 00:00
Search period end: 03 December 2017 00:00
Orbit: 402 x 407 km, 51.6° (Epoch: 24 November)

Date Brightness Start Highest point End Pass type
(mag) Time Alt. Az. Time Alt. Az. Time Alt. Az.
23 Nov - 00:35:02 10° S 00:35:59 11° SSE 00:36:57 10° SE daylight
23 Nov - 02:09:40 10° SW 02:13:01 66° SE 02:16:19 10° NE daylight
23 Nov - 18:46:59 10° WNW 18:50:16 61° SW 18:53:36 10° SE daylight
23 Nov - 20:26:37 10° SW 20:27:19 10° SSW 20:28:02 10° S daylight
24 Nov - 01:17:35 10° SSW 01:20:40 33° SE 01:23:43 10° ENE daylight
24 Nov - 02:54:28 10° W 02:56:58 20° NW 02:59:28 10° N daylight
24 Nov - 17:54:44 10° NW 17:57:59 59° NE 18:01:17 10° SE daylight
24 Nov - 19:32:36 10° WSW 19:34:44 16° SSW 19:36:53 10° S daylight
25 Nov - 00:25:41 10° SSW 00:28:12 19° SSE 00:30:42 10° E daylight
25 Nov - 02:01:37 10° WSW 02:04:48 41° NW 02:07:57 10° NNE daylight
25 Nov - 17:02:57 10° N 17:05:47 27° NE 17:08:38 10° ESE daylight
25 Nov - 18:39:23 10° W 18:42:13 25° SW 18:45:04 10° SSE daylight
25 Nov - 23:34:05 10° S 23:35:37 13° SSE 23:37:09 10° SE daylight
26 Nov - 01:09:11 10° SW 01:12:32 86° SE 01:15:52 10° NE daylight
26 Nov - 16:12:02 10° NNE 16:13:38 13° NE 16:15:15 10° E daylight
26 Nov - 17:46:34 10° WNW 17:49:47 47° SW 17:53:01 10° SE daylight
27 Nov - 00:16:59 10° SW 00:20:10 41° SE 00:23:21 10° ENE daylight
27 Nov - 01:54:19 10° W 01:56:23 15° NW 01:58:26 10° NNW daylight
27 Nov - 16:54:08 10° NW 16:57:25 80° NE 17:00:46 10° SE daylight
27 Nov - 18:32:30 10° WSW 18:34:17 14° SSW 18:36:04 10° S daylight
27 Nov - 23:24:57 10° SSW 23:27:42 23° SSE 23:30:26 10° E daylight
28 Nov - 01:01:11 10° WSW 01:04:12 32° NW 01:07:12 10° NNE daylight
28 Nov - 16:02:07 10° NNW 16:05:09 35° NE 16:08:13 10° ESE daylight
28 Nov - 17:39:03 10° W 17:41:41 21° SSW 17:44:21 10° SSE daylight
28 Nov - 22:33:11 10° S 22:35:07 14° SSE 22:37:03 10° ESE daylight
29 Nov - 00:08:36 10° SW 00:11:56 72° NW 00:15:14 10° NE daylight
29 Nov - 15:10:46 10° N 15:12:57 17° NE 15:15:09 10° E visible
29 Nov - 16:46:04 10° WNW 16:49:11 37° SW 16:52:20 10° SSE daylight
29 Nov - 23:16:17 10° SW 23:19:34 52° SE 23:22:49 10° ENE daylight
30 Nov - 00:54:20 10° WNW 00:55:41 12° NW 00:57:00 10° NNW daylight
30 Nov - 15:53:28 10° NW 15:56:45 79° SW 16:00:06 10° SE daylight
30 Nov - 17:32:24 10° SW 17:33:43 12° SSW 17:35:02 10° S daylight
30 Nov - 22:24:09 10° SSW 22:27:05 27° SE 22:30:00 10° E daylight
01 Dec - 00:00:42 10° WSW 00:03:29 25° NW 00:06:15 10° N daylight
01 Dec - 15:01:15 10° NNW 15:04:25 45° NE 15:07:37 10° ESE visible
01 Dec - 16:38:41 10° WSW 16:41:04 18° SSW 16:43:28 10° SSE daylight
01 Dec - 21:32:14 10° SSW 21:34:30 17° SSE 21:36:45 10° ESE daylight
01 Dec - 23:07:55 10° WSW 23:11:12 54° NW 23:14:27 10° NNE daylight
02 Dec - 14:09:35 10° N 14:12:09 21° NE 14:14:44 10° ESE visible
02 Dec - 15:45:31 10° W 15:48:29 30° SW 15:51:30 10° SSE daylight
02 Dec - 20:40:49 10° S 20:41:49 11° SSE 20:42:48 10° SE daylight
02 Dec - 22:15:29 10° SW 22:18:49 67° SE 22:22:07 10° NE daylight
